Flag for Germany Weather past 2 weeks in Rüsselsheim, Hesse, Germany

Now
89 °F

Sunny.


Feels Like: 86 °F
Forecast: 65 / 82 °F
Wind: 8 mph from Southwest

Location: Wiesbaden Airport

Current Time: Aug 3, 2015 at 3:46:39 PM

Latest Report: Aug 3, 2015 at 2:58 PM


Visibility: N/A

Pressure: 29.98 "Hg

Humidity: 28%

Dew point: 51 °F

Location of RüsselsheimLocation

Historic Weather in Rüsselsheim — Graph

°F

Rüsselsheim temperature yesterday

Maximum temperature yesterday: 85 °F (at 5:58 PM)
Minimum temperature yesterday: 60 °F (at 3:58 AM)
Average temperature yesterday: 73 °F

Past Weeks' High & Low Weather Summary

 TemperatureHumidityPressure
High90 °F (Jul 22, 2:58 PM)100% (Jul 20, 11:58 AM)30.13 "Hg (Jul 20, 11:58 AM)
Low49 °F (Jul 26, 5:58 AM)25% (Aug 2, 6:58 PM)29.62 "Hg (Jul 24, 10:58 PM)
Average69 °F60%29.91 "Hg
* Reported Jul 19 1:58 PM — Aug 3 1:58 PM, Rüsselsheim, Weather by CustomWeather, © 2015

Note: Actual official high and low records may vary slightly from our data, if they occured in-between our weather recording intervals... More about our weather records

Advertising

Rüsselsheim weather history for previous 24 hours

 ConditionsComfort  
Time TempWeatherWind HumidityBarometerVisibility
1:58 PM
Mon, Aug 3
88 °FSunny.15 mph31%29.99 "HgN/A
12:58 PM86 °FSunny.9 mph33%30.02 "HgN/A
11:58 AM84 °FSunny.7 mph35%30.03 "HgN/A
10:58 AM81 °FSunny.8 mph39%30.04 "HgN/A
9:58 AM77 °FSunny.6 mph44%30.04 "HgN/A
8:58 AM74 °FSunny.8 mph47%30.03 "HgN/A
7:58 AM68 °FSunny.5 mph56%30.03 "HgN/A
6:58 AM63 °FSunny.2 mph68%30.03 "HgN/A
5:58 AM62 °FClear.No wind60%30.03 "HgN/A
4:58 AM60 °FClear.2 mph64%30.02 "HgN/A
3:58 AM64 °FClear.1 mph56%30.02 "HgN/A
2:58 AM72 °FClear.No wind44%30.01 "HgN/A
1:58 AM70 °FClear.2 mph47%30.03 "HgN/A
12:58 AM65 °FClear.No wind56%30.03 "HgN/A
11:58 PM
Sun, Aug 2
68 °FClear.1 mph49%30.03 "HgN/A
10:58 PM70 °FClear.No wind46%30.03 "HgN/A
9:58 PM71 °FSunny.3 mph46%30.03 "HgN/A
8:58 PM81 °FSunny.1 mph32%30.03 "HgN/A
7:58 PM84 °FSunny.3 mph27%30.02 "HgN/A
6:58 PM84 °FSunny.3 mph25%30.03 "HgN/A
5:58 PM85 °FSunny.6 mph27%30.03 "HgN/A
4:58 PM85 °FSunny.2 mph26%30.04 "HgN/A
3:58 PM84 °FSunny.5 mph28%30.06 "HgN/A
Weather by CustomWeather, © 2015

See weather overviewHow to use our weather pages